Location: Newark
(7.0858°N, 171.3717°E)
Time: 13:16:16
(UTC+00:00)

Vanguard 1 Rocket - Pass Details

Date: 27 November 2020
Orbit: 655 x 4222 km, 34.3° (Epoch: 23 January)

Event Time Altitude Azimuth Distance (km) Brightness Sun altitude
Rises 11:25:36 0° 233° (SW) 6,781 12.1 -70.3°
Reaches altitude 10° 11:29:25 10° 233° (SW) 6,122 11.7 -70.9°
Enters shadow 11:38:40 39° 234° (SW) 4,829 10.9 -72.3°
Exits shadow 12:20:53 - 53° (NE) 7,331 11.9 -75.8°
Sets 12:22:08 0° 54° (NE) 7,529 12.0 -75.8°
